Total_Precipitation_Accumulation
1.79 1.74 1.31 0.78 0.59 0.46 0.44 0.48 0.45 0.41 0.38 0.50 0.55 0.54 0.55 0.52 0.49 0.51 0.52 0.54 0.64 0.77 0.88 1.03 1.17 1.45 1.67 1.89 2.14 2.22 2.44 2.58 2.68 2.73 2.63 2.45 2.28 2.14 2.00 1.88 1.78 1.66 1.53 1.42
1.66 1.30 0.74 0.57 0.57 0.54 0.52 0.55 0.47 0.42 0.38 0.46 0.49 0.47 0.52 0.56 0.54 0.46 0.43 0.45 0.50 0.63 0.73 0.83 0.96 1.20 1.37 1.53 1.70 1.82 1.99 2.20 2.36 2.44 2.40 2.43 2.46 2.31 2.09 1.96 1.85 1.75 1.68 1.56
1.21 0.79 0.55 0.60 0.66 0.68 0.59 0.55 0.48 0.44 0.40 0.45 0.46 0.49 0.48 0.50 0.52 0.48 0.44 0.44 0.48 0.60 0.62 0.68 0.77 1.00 1.13 1.24 1.40 1.51 1.64 1.78 1.88 2.19 2.41 2.43 2.49 2.42 2.14 1.89 1.73 1.76 1.83 1.76
1.01 0.61 0.61 0.73 0.67 0.65 0.67 0.45 0.44 0.44 0.58 0.65 0.47 0.60 0.47 0.44 0.46 0.50 0.48 0.48 0.55 0.61 0.64 0.68 0.73 0.86 0.94 1.00 1.17 1.32 1.46 1.55 1.61 1.85 2.09 2.10 1.99 1.93 1.84 1.78 1.80 1.82 1.86 1.88
1.02 0.65 0.67 0.79 0.58 0.56 0.58 0.43 0.49 0.53 0.61 0.64 0.42 0.51 0.50 0.43 0.52 0.54 0.52 0.54 0.59 0.57 0.57 0.65 0.68 0.73 0.81 0.82 0.90 1.06 1.30 1.39 1.43 1.51 1.68 1.90 1.91 1.84 1.86 1.87 1.83 1.75 1.67 1.75
0.77 0.66 0.73 0.68 0.51 0.54 0.56 0.65 0.72 0.72 0.86 0.86 0.40 0.43 0.47 0.46 0.53 0.53 0.48 0.52 0.54 0.53 0.55 0.59 0.56 0.59 0.71 0.70 0.69 0.82 0.98 1.23 1.35 1.39 1.46 1.60 1.68 1.65 1.65 1.73 1.77 1.77 1.66 1.59
0.95 0.76 0.67 0.69 0.83 0.81 0.86 1.24 1.53 1.36 1.18 0.66 0.24 0.31 0.44 0.43 0.45 0.49 0.47 0.45 0.47 0.50 0.50 0.53 0.54 0.60 0.65 0.65 0.60 0.63 0.73 0.93 1.11 1.17 1.19 1.28 1.44 1.50 1.48 1.53 1.63 1.66 1.59 1.52
1.00 0.89 0.60 0.68 0.95 1.00 0.87 1.06 1.25 0.97 0.62 0.33 0.20 0.28 0.36 0.36 0.37 0.37 0.33 0.33 0.38 0.43 0.44 0.47 0.49 0.52 0.51 0.52 0.56 0.59 0.65 0.71 0.79 0.84 0.91 1.01 1.12 1.23 1.25 1.26 1.36 1.44 1.40 1.39
0.74 0.67 0.42 0.48 0.63 0.75 0.84 0.82 0.70 0.85 0.56 0.36 0.22 0.24 0.27 0.26 0.26 0.27 0.27 0.29 0.32 0.33 0.33 0.35 0.37 0.38 0.35 0.37 0.45 0.51 0.54 0.57 0.62 0.63 0.68 0.79 0.85 0.97 1.10 1.14 1.18 1.28 1.30 1.27
0.65 0.76 0.48 0.50 0.72 0.81 0.80 0.70 0.80 1.22 0.92 0.50 0.22 0.19 0.27 0.26 0.25 0.27 0.27 0.26 0.25 0.24 0.26 0.29 0.32 0.32 0.29 0.28 0.30 0.34 0.41 0.53 0.58 0.54 0.56 0.63 0.72 0.79 0.87 0.96 1.01 1.04 1.02 1.03
0.58 0.88 0.66 0.66 0.82 0.78 0.77 0.87 0.91 0.96 0.75 0.67 0.41 0.25 0.23 0.23 0.24 0.26 0.25 0.23 0.22 0.21 0.24 0.25 0.26 0.26 0.26 0.24 0.23 0.26 0.33 0.42 0.49 0.48 0.49 0.51 0.56 0.62 0.68 0.73 0.79 0.81 0.82 0.83
0.53 0.92 0.77 0.54 0.46 0.51 0.63 0.67 0.82 1.11 0.80 0.63 0.53 0.30 0.19 0.19 0.20 0.22 0.23 0.23 0.23 0.24 0.25 0.23 0.21 0.21 0.24 0.23 0.23 0.24 0.29 0.36 0.42 0.44 0.45 0.47 0.49 0.50 0.55 0.62 0.62 0.63 0.67 0.68
0.57 1.00 1.02 0.70 0.60 0.64 0.71 0.60 0.63 0.94 1.21 0.92 0.70 0.32 0.16 0.15 0.16 0.18 0.20 0.23 0.25 0.26 0.26 0.25 0.22 0.20 0.22 0.24 0.24 0.23 0.27 0.32 0.36 0.40 0.41 0.42 0.44 0.44 0.46 0.52 0.55 0.57 0.63 0.67
0.82 1.04 0.91 0.70 0.62 0.68 0.64 0.51 0.63 1.26 1.55 0.84 0.41 0.20 0.13 0.15 0.21 0.21 0.21 0.23 0.26 0.28 0.27 0.27 0.29 0.25 0.23 0.23 0.21 0.20 0.22 0.27 0.31 0.34 0.37 0.38 0.42 0.43 0.42 0.44 0.48 0.52 0.56 0.61
0.78 1.05 0.72 0.44 0.34 0.52 0.53 0.51 0.61 0.92 0.90 0.84 0.40 0.22 0.18 0.21 0.27 0.26 0.24 0.21 0.22 0.23 0.25 0.25 0.26 0.27 0.25 0.24 0.22 0.20 0.19 0.22 0.26 0.30 0.33 0.36 0.40 0.43 0.44 0.44 0.46 0.49 0.51 0.57
0.60 0.88 0.77 0.51 0.30 0.42 0.49 0.45 0.47 0.53 0.55 0.55 0.40 0.33 0.23 0.23 0.24 0.24 0.21 0.19 0.19 0.20 0.23 0.23 0.22 0.23 0.22 0.25 0.26 0.24 0.22 0.21 0.24 0.27 0.29 0.31 0.35 0.38 0.43 0.45 0.46 0.47 0.51 0.57
0.50 0.75 0.96 0.64 0.34 0.47 0.53 0.44 0.45 0.45 0.42 0.45 0.48 0.38 0.27 0.27 0.26 0.24 0.22 0.18 0.17 0.15 0.15 0.18 0.19 0.21 0.20 0.20 0.21 0.22 0.21 0.20 0.22 0.25 0.27 0.30 0.33 0.37 0.41 0.47 0.51 0.57 0.61 0.68
0.32 0.64 1.04 0.74 0.49 0.61 0.41 0.31 0.34 0.38 0.38 0.41 0.39 0.30 0.25 0.25 0.25 0.24 0.20 0.17 0.14 0.11 0.09 0.10 0.12 0.14 0.14 0.14 0.15 0.18 0.19 0.18 0.20 0.24 0.30 0.33 0.35 0.44 0.51 0.53 0.59 0.68 0.73 0.80
0.17 0.51 0.96 0.85 0.61 0.36 0.22 0.21 0.25 0.34 0.39 0.35 0.27 0.20 0.18 0.19 0.23 0.23 0.18 0.14 0.12 0.10 0.10 0.09 0.10 0.12 0.12 0.13 0.15 0.18 0.21 0.22 0.21 0.25 0.32 0.37 0.38 0.49 0.59 0.60 0.64 0.71 0.76 0.82
0.16 0.40 0.90 0.87 0.71 0.32 0.18 0.10 0.11 0.24 0.42 0.29 0.23 0.21 0.21 0.23 0.28 0.24 0.17 0.14 0.14 0.13 0.11 0.12 0.12 0.13 0.16 0.18 0.20 0.23 0.26 0.32 0.34 0.35 0.40 0.47 0.53 0.62 0.67 0.67 0.67 0.66 0.67 0.69
0.28 0.56 0.81 0.72 0.67 0.26 0.14 0.08 0.11 0.34 0.42 0.20 0.17 0.19 0.22 0.24 0.23 0.19 0.14 0.12 0.14 0.16 0.16 0.15 0.16 0.19 0.21 0.22 0.24 0.27 0.31 0.41 0.45 0.47 0.51 0.54 0.59 0.62 0.63 0.62 0.60 0.56 0.52 0.52
0.19 0.33 0.40 0.45 0.64 0.37 0.15 0.11 0.21 0.29 0.19 0.17 0.18 0.19 0.20 0.20 0.16 0.14 0.16 0.13 0.11 0.12 0.14 0.17 0.19 0.22 0.25 0.29 0.34 0.36 0.38 0.44 0.46 0.47 0.49 0.49 0.49 0.50 0.52 0.52 0.52 0.49 0.47 0.46
0.17 0.24 0.27 0.31 0.33 0.22 0.16 0.16 0.17 0.15 0.14 0.13 0.15 0.16 0.16 0.17 0.16 0.13 0.12 0.12 0.11 0.11 0.13 0.16 0.21 0.25 0.29 0.30 0.33 0.36 0.36 0.36 0.37 0.38 0.39 0.38 0.36 0.36 0.38 0.39 0.40 0.41 0.41 0.41
0.20 0.17 0.23 0.27 0.22 0.15 0.14 0.12 0.11 0.10 0.09 0.08 0.08 0.10 0.14 0.17 0.16 0.14 0.12 0.11 0.09 0.09 0.10 0.13 0.15 0.17 0.20 0.22 0.24 0.26 0.26 0.26 0.26 0.26 0.28 0.29 0.27 0.27 0.29 0.29 0.33 0.35 0.37 0.37
0.23 0.21 0.24 0.24 0.18 0.14 0.12 0.09 0.08 0.08 0.07 0.06 0.05 0.05 0.08 0.11 0.11 0.11 0.12 0.10 0.10 0.09 0.10 0.10 0.11 0.12 0.13 0.15 0.16 0.17 0.17 0.18 0.20 0.20 0.20 0.22 0.24 0.24 0.26 0.29 0.33 0.37 0.39 0.44
0.11 0.14 0.23 0.25 0.16 0.16 0.14 0.09 0.08 0.08 0.07 0.06 0.06 0.06 0.06 0.07 0.08 0.07 0.07 0.07 0.08 0.09 0.10 0.10 0.10 0.12 0.15 0.15 0.13 0.13 0.12 0.14 0.17 0.19 0.19 0.21 0.23 0.23 0.25 0.27 0.32 0.37 0.40 0.45